sat.trackr.live / text

‹ back to catalog

STARLINK-33585

NORAD 62782 · 2025-015AA

PAYLOAD ACTIVE UNKNOWN

§ Identity

Operator
Country
US
Launch date
2025-01-21
Launch site
AFWTR
Launch vehicle
Mass (kg)
RCS (m²)

Purposes: comms

External: N2YO · Heavens-Above · Gunter

§ Orbital elements

Epoch: 2026-09-21T20:44:02.872032Z

Period
94.01 min
Inclination
53.1579°
Eccentricity
0.0001363
Mean motion
15.31701248 rev/d
Perigee alt
469.8 km
Apogee alt
471.7 km
Semi-major
6,848.9 km
B*
2.2998e-4
RAAN
129.3056°
Arg perigee
96.8250°
Mean anomaly
263.2907°
Rev number
9,426

§ Raw data

STARLINK-335851 62782U 25015AA  26264.86392213  .00006778  00000+0  22998-3 0  99922 62782  53.1579 129.3056 0001363  96.8250 263.2907 15.31701248 94268

JSON: /api/v1/satellites/62782 · /tle

For live sub-satellite position, see the globe view (requires WebGL).

§ Visibility from observer

Set your observer location to see the next 7 days of passes ≥ 10°. The values pass through the URL so the page stays shareable.

No JS? Fill the form by hand. The geolocation button needs JavaScript.